Tracking 19817 objects as of 19-Aug-2019
HD Live streaming from Space Station
objects crossing your sky now

FENGYUN 1C DEB

Track FENGYUN 1C DEB now!
10-day predictions


NORAD ID: 31299
Int'l Code: 1999-025BPH
Perigee: 406.1 km
Apogee: 682.3 km
Inclination: 97.0 °
Period: 95.4 minutes
Semi major axis: 6915 km
RCS: 0.0012 m2 (small)
Launch date: May 10, 1999
Source: People's Republic of China (PRC)
Launch site: Taiyaun Space Center, China (TSC)

Note: This is SATELLITE DEBRIS
aabbcc
Your satellite tracking list
Your tracking list is empty




NASA's NSSDC Master Catalog

Two Line Element Set (TLE):
1 31299U 99025BPH 19230.71758222 +.00002506 +00000-0 +99694-4 0  9992
2 31299 096.9796 308.1447 0199670 241.6173 116.4802 15.09724993663382
Source of the keplerian elements: AFSPC